Middletown, OH

8:56 AM EDT on April 29, 2017 (GMT -0400)
Hook Field Municipal

Weather History for KMWO - May, 2013

Change the Weather History Date:

Tuesday, May 21, 2013

  Actual Average (KFFO) Record (KFFO)
Temperature  
Mean Temperature 74 °F -  
Max Temperature 82 °F 70 °F 87 °F (2004)
Min Temperature 67 °F 49 °F 37 °F (2002)
Cooling Degree Days 10    
Growing Degree Days 24 (Base 50)    
Moisture  
Dew Point 67 °F    
Average Humidity 76    
Maximum Humidity 96    
Minimum Humidity 59    
Precipitation  
Precipitation 0.00 in - - ()
Sea Level Pressure  
Sea Level Pressure 29.89 in    
Wind  
Wind Speed 8 mph (SW)    
Max Wind Speed 18 mph    
Max Gust Speed 26 mph    
Visibility 10 miles    
Events      
Averages and records for this station are not official NWS values.
T = Trace of Precipitation, MM = Missing Value Source: NWS Daily Summary

Daily Weather History Graph

Daily Weather History Graph

Search for Another Location

Airport or City:

Trip Planner

Search our weather history database for the weather conditions in past years. The results will help you decide how hot, cold, wet, or windy it might be!

Date:

Astronomy

May. 21, 2013 Rise Set
Actual Time 6:18 AM EDT 8:50 PM EDT
Civil Twilight 5:47 AM EDT 9:21 PM EDT
Nautical Twilight 5:09 AM EDT 10:00 PM EDT
Astronomical Twilight 4:26 AM EDT 10:43 PM EDT
Moon 5:04 PM EDT (5/21) 3:44 AM EDT (5/21)
Length of Visible Light 15h 34m
Length of Day
14h 32m
Waxing Gibbous, 84% of the Moon is Illuminated
May 21
Waxing Gibbous
May 25
Full
May 31
Last Quarter
Jun 8
New
Jun 16
First Quarter

Hourly Weather History & Observations

Time (EDT) Temp. Heat Index Dew Point Humidity Pressure Visibility Wind Dir Wind Speed Gust Speed Precip Events Conditions
12:15 AM 73.6 °F - 70.2 °F 89% 29.91 in 10.0 mi South 3.5 mph - N/A   Clear
12:35 AM 73.4 °F - 70.2 °F 90% 29.91 in 10.0 mi Calm Calm - N/A   Clear
12:55 AM 72.7 °F - 70.0 °F 91% 29.92 in 10.0 mi SSW 3.5 mph - N/A   Clear
1:15 AM 72.7 °F - 70.0 °F 91% 29.91 in 10.0 mi South 4.6 mph - N/A   Clear
1:35 AM 72.7 °F - 70.5 °F 93% 29.91 in 10.0 mi South 5.8 mph - N/A   Clear
1:55 AM 72.7 °F - 70.3 °F 92% 29.91 in 10.0 mi SSW 6.9 mph - N/A   Clear
2:15 AM 72.7 °F - 71.6 °F 96% 29.92 in 10.0 mi SW 6.9 mph - N/A   Clear
2:35 AM 72.7 °F - 71.2 °F 95% 29.93 in 10.0 mi SSW 6.9 mph - N/A   Clear
2:55 AM 72.7 °F - 70.0 °F 91% 29.91 in 10.0 mi SSW 9.2 mph - N/A   Clear
3:15 AM 72.7 °F - 69.1 °F 88% 29.91 in 10.0 mi SW 9.2 mph 19.6 mph N/A   Clear
3:35 AM 72.7 °F - 69.6 °F 90% 29.91 in 10.0 mi SW 12.7 mph - N/A   Clear
3:55 AM 72.7 °F - 69.6 °F 90% 29.90 in 10.0 mi SW 11.5 mph 16.1 mph N/A   Clear
4:15 AM 72.7 °F - 70.0 °F 91% 29.90 in 10.0 mi SW 9.2 mph - N/A   Clear
4:35 AM 72.7 °F - 70.2 °F 92% 29.90 in 10.0 mi SW 10.4 mph - N/A   Clear
4:55 AM 72.7 °F - 70.2 °F 92% 29.90 in 10.0 mi SW 10.4 mph - N/A   Clear
5:15 AM 72.7 °F - 70.3 °F 92% 29.91 in 10.0 mi WSW 10.4 mph - N/A   Scattered Clouds
5:35 AM 72.7 °F - 69.3 °F 89% 29.93 in 10.0 mi WSW 11.5 mph 21.9 mph N/A   Mostly Cloudy
5:55 AM 72.7 °F - 70.0 °F 91% 29.93 in 10.0 mi West 8.1 mph - N/A   Scattered Clouds
6:15 AM 67.6 °F - 62.6 °F 84% 29.92 in 10.0 mi West 8.1 mph - N/A   Clear
6:35 AM 67.6 °F - 63.5 °F 87% 29.91 in 10.0 mi WSW 4.6 mph - N/A   Clear
6:55 AM 67.6 °F - 64.4 °F 89% 29.92 in 10.0 mi SSW 3.5 mph - N/A   Clear
7:15 AM 67.6 °F - 64.8 °F 90% 29.92 in 10.0 mi SSW 3.5 mph - N/A   Clear
7:35 AM 67.6 °F - 64.2 °F 89% 29.92 in 10.0 mi SW 4.6 mph - N/A   Clear
7:55 AM 70.2 °F - 64.9 °F 83% 29.92 in 10.0 mi SW 8.1 mph - N/A   Clear
8:15 AM 71.1 °F - 65.7 °F 83% 29.94 in 10.0 mi SW 8.1 mph - N/A   Clear
8:35 AM 72.7 °F - 67.1 °F 83% 29.96 in 10.0 mi SW 9.2 mph - N/A   Clear
8:55 AM 72.7 °F - 67.8 °F 85% 29.96 in 10.0 mi SW 8.1 mph - N/A   Clear
9:15 AM 72.7 °F - 66.9 °F 82% 29.99 in 10.0 mi WSW 10.4 mph - N/A   Scattered Clouds
9:35 AM 72.7 °F - 66.9 °F 82% 29.98 in 10.0 mi SW 9.2 mph - N/A   Mostly Cloudy
9:55 AM 72.7 °F - 65.8 °F 79% 29.95 in 10.0 mi SSW 10.4 mph 16.1 mph N/A   Scattered Clouds
10:15 AM 74.7 °F - 67.1 °F 77% 29.94 in 10.0 mi SSW 10.4 mph - N/A   Clear
10:35 AM 73.6 °F - 64.9 °F 74% 29.90 in 10.0 mi South 11.5 mph 16.1 mph N/A   Clear
10:55 AM 75.2 °F - 66.6 °F 74% 29.90 in 10.0 mi South 10.4 mph - N/A   Clear
11:15 AM 75.6 °F - 66.2 °F 73% 29.90 in 10.0 mi South 6.9 mph - N/A   Clear
11:35 AM 77.9 °F - 67.5 °F 70% 29.90 in 10.0 mi South 12.7 mph - N/A   Clear
11:55 AM 78.3 °F - 67.8 °F 70% 29.90 in 10.0 mi South 12.7 mph 18.4 mph N/A   Clear
12:15 PM 79.3 °F - 67.5 °F 67% 29.89 in 10.0 mi South 11.5 mph 17.3 mph N/A   Clear
12:35 PM 80.2 °F 82.3 °F 66.2 °F 62% 29.89 in 10.0 mi SSW 16.1 mph 23.0 mph N/A   Clear
12:55 PM 80.4 °F 82.4 °F 65.8 °F 61% 29.88 in 10.0 mi SW 10.4 mph 19.6 mph N/A   Clear
1:15 PM 81.0 °F 83.2 °F 66.4 °F 61% 29.88 in 10.0 mi SSW 13.8 mph 18.4 mph N/A   Clear
1:35 PM 80.8 °F 82.6 °F 65.5 °F 59% 29.88 in 10.0 mi SW 17.3 mph 26.5 mph N/A   Clear
1:55 PM 80.2 °F 82.1 °F 65.3 °F 60% 29.88 in 10.0 mi WSW 17.3 mph 23.0 mph N/A   Clear
2:15 PM 80.8 °F 82.6 °F 65.5 °F 59% 29.87 in 10.0 mi WSW 15.0 mph 24.2 mph N/A   Clear
2:35 PM 81.0 °F 83.4 °F 67.1 °F 63% 29.87 in 10.0 mi SW 16.1 mph 19.6 mph N/A   Clear
2:55 PM 81.5 °F 84.2 °F 67.8 °F 63% 29.87 in 10.0 mi SW 16.1 mph 20.7 mph N/A   Clear
3:15 PM 82.0 °F 85.3 °F 68.9 °F 64% 29.87 in 10.0 mi SW 15.0 mph 20.7 mph N/A   Clear
3:35 PM 81.3 °F 83.8 °F 67.3 °F 62% 29.87 in 10.0 mi SSW 18.4 mph 24.2 mph N/A   Scattered Clouds
3:55 PM 81.1 °F 83.7 °F 67.3 °F 63% 29.88 in 10.0 mi SW 17.3 mph 21.9 mph N/A   Scattered Clouds
4:15 PM 80.8 °F 83.5 °F 67.8 °F 65% 29.87 in 10.0 mi WSW 15.0 mph 19.6 mph N/A   Clear
4:35 PM 81.0 °F 83.3 °F 66.9 °F 62% 29.87 in 10.0 mi SW 16.1 mph - N/A   Clear
4:55 PM 80.8 °F 83.1 °F 66.7 °F 62% 29.86 in 10.0 mi SW 12.7 mph 17.3 mph N/A   Clear
5:15 PM 80.4 °F 82.3 °F 65.5 °F 60% 29.85 in 10.0 mi SW 16.1 mph 23.0 mph N/A   Clear
5:35 PM 80.2 °F 82.5 °F 66.7 °F 63% 29.85 in 10.0 mi WSW 15.0 mph 21.9 mph N/A   Clear
5:55 PM 80.6 °F 82.9 °F 66.9 °F 63% 29.85 in 10.0 mi SW 15.0 mph 19.6 mph N/A   Scattered Clouds
6:15 PM 81.0 °F 83.4 °F 67.1 °F 63% 29.84 in 10.0 mi SW 10.4 mph 19.6 mph N/A   Clear
6:35 PM 80.8 °F 83.3 °F 67.6 °F 64% 29.83 in 10.0 mi SW 8.1 mph - N/A   Scattered Clouds
6:55 PM 80.1 °F 82.6 °F 67.6 °F 66% 29.82 in 10.0 mi SW 11.5 mph - N/A   Scattered Clouds
7:15 PM 80.2 °F 82.6 °F 67.3 °F 64% 29.82 in 10.0 mi SW 11.5 mph - N/A   Scattered Clouds
7:35 PM 79.0 °F - 67.6 °F 68% 29.82 in 10.0 mi SW 6.9 mph - N/A   Scattered Clouds
7:55 PM 77.9 °F - 66.9 °F 69% 29.82 in 10.0 mi SW 8.1 mph - N/A   Scattered Clouds
8:15 PM 77.9 °F - 66.6 °F 68% 29.83 in 10.0 mi SSW 10.4 mph - N/A   Clear
8:35 PM 77.9 °F - 67.1 °F 69% 29.82 in 10.0 mi South 11.5 mph - N/A   Clear
8:55 PM 77.9 °F - 67.1 °F 69% 29.82 in 10.0 mi SSW 10.4 mph - N/A   Clear
9:15 PM 75.2 °F - 65.5 °F 72% 29.82 in 10.0 mi SSW 9.2 mph - N/A   Clear
9:35 PM 75.2 °F - 66.2 °F 73% 29.83 in 10.0 mi SSW 10.4 mph - N/A   Clear
9:55 PM 75.2 °F - 66.6 °F 74% 29.83 in 10.0 mi SSW 9.2 mph - N/A   Clear
10:15 PM 73.9 °F - 64.9 °F 73% 29.84 in 10.0 mi SSW 10.4 mph 17.3 mph N/A   Clear
10:35 PM 72.7 °F - 63.9 °F 74% 29.85 in 10.0 mi SSW 11.5 mph 16.1 mph N/A   Clear
10:55 PM 72.7 °F - 65.1 °F 77% 29.85 in 10.0 mi SSW 8.1 mph - N/A   Clear
11:15 PM 72.7 °F - 66.2 °F 80% 29.85 in 10.0 mi SSW 10.4 mph - N/A   Clear
11:35 PM 72.7 °F - 67.1 °F 83% 29.87 in 10.0 mi South 8.1 mph - N/A   Clear
11:55 PM 71.6 °F - 66.6 °F 84% 29.85 in 10.0 mi South 8.1 mph - N/A   Clear